Miscellaneous Local Product
Issued by NWS North Platte, NE

Home | Current Version | Previous Version | Text Only | Print | Product List | Glossary On
Versions: 1 2 3 4 5 6 7 8 9 10 11 12 13 14 15 16 17 18 19 20 21 22 23 24 25 26 27 28 29 30 31 32 33 34 35 36 37 38 39 40 41 42 43 44 45 46 47 48 49 50
000
AXUS43 KLBF 030910
MISLBF


WESTERN AND NORTH CENTRAL NEBRASKA HOURLY WEATHER ROUNDUP
NATIONAL WEATHER SERVICE NORTH PLATTE NE
400 AM CDT WED JUN 03 2015

***STATIONS NOT REPORTING VARIABLES SUCH AS SKY/WEATHER OR
PRESSURE ARE PROVIDED BY THE NEBRASKA DEPARTMENT OF
ROADS...RAWS...AND APRS NETWORKS...AND ARE NOT UNDER
NATIONAL WEATHER SERVICE QUALITY CONTROL***

...OBSERVATIONS IN AND NEAR THE EASTERN PANHANDLE OF NEBRASKA...

CITY           SKY/WX    TMP DP  RH WIND       PRES   REMARKS
PINE RIDGE     PTCLDY    52  49  89 S5        29.93R
CHADRON        CLEAR     51  49  92 W3        29.94S
ALLIANCE       PTCLDY    57  53  86 NE15      29.92R
SIDNEY         PTCLDY    59  55  87 N15       29.91R
WHITECLAY        N/A     49  47  95 SE6         N/A
CRESCENT LAKE    N/A     58  53  83 NE9         N/A
BIG SPRINGS      N/A     63  56  78 E12         N/A
$$

...OBSERVATIONS IN NORTH CENTRAL NEBRASKA...

CITY           SKY/WX    TMP DP  RH WIND       PRES   REMARKS
VALENTINE      CLOUDY    61  53  75 N10       29.86F
THEDFORD       CLOUDY    61  58  88 E3        29.90R
AINSWORTH      CLOUDY    62  58  87 NW3       29.86F
O`NEILL        CLOUDY    62  60  94 NW8       29.85R
ORD            CLOUDY    62  56  80 W10       29.84R
BROKEN BOW     TSTM      60  57  89 NW7       29.91R FOG
BROWNLEE         N/A     62  60  93 CALM        N/A
VALENTINE NWR    N/A     59  59  99 N5G13       N/A
SPRINGVIEW       N/A     60  57  90 CALM        N/A
HALSEY           N/A     58  58  99 NE6         N/A
NEWPORT          N/A    N/A N/A N/A W5          N/A
SARGENT          N/A     60  58  93 W12G18      N/A
CHAMBERS         N/A     60  58  95 N6          N/A
EWING            N/A     61  60  95 S5G12       N/A
$$

...OBSERVATIONS IN SOUTHWEST NEBRASKA AND FAR NORTHEAST COLORADO...

CITY           SKY/WX    TMP DP  RH WIND       PRES   REMARKS
WRAY           FAIR      62  58  87 NW13G20   29.80R
IMPERIAL       MOCLDY    62  55  77 NE22G31   29.83R
OGALLALA       MOCLDY    62  56  83 E16G25    29.85F
NORTH PLATTE   TSTM      59  55  87 N8        29.94R FOG
MCCOOK         CLEAR     68  63  84 NE15G23   29.80R
LEXINGTON      TSTM      61  58  89 NW20      29.94R
PAXTON           N/A     61  56  84 NE16        N/A
GOTHENBURG       N/A     61  52  71 N13         N/A
CALLAWAY         N/A     59  58  95 E7          N/A
$$

...NORTH PLATTE AREA...

CITY           SKY/WX    TMP DP  RH WIND       PRES   REMARKS
AIRPORT        TSTM      59  55  87 N8        29.94R FOG
$$

...SOME WEATHER OBSERVATIONS FROM AROUND THE REGION...

CITY           SKY/WX    TMP DP  RH WIND       PRES   REMARKS
DENVER         CLEAR     57  48  72 SW9       29.94R
LARAMIE        CLEAR     44  33  65 S9        30.08R
CHEYENNE       CLEAR     51  45  79 N13       30.02R
SCOTTSBLUFF    CLEAR     57  51  80 NE10      29.93R
RAPID CITY     PTCLDY    54  50  86 NW9       29.90R
PIERRE         CLOUDY    64  58  80 NW7       29.78F
WINNER         FAIR      64  55  72 N18G29    29.83F
SIOUX FALLS    CLOUDY    64  59  83 S12       29.81F
OMAHA          CLOUDY    65  58  78 SE13      29.86F
GRAND ISLAND   CLOUDY    61  59  93 E7        29.87F THUNDER
KANSAS CITY    LGT RAIN  64  61  90 SE10      29.92F
WICHITA        PTCLDY    71  65  81 S14       29.86F
HAYS           CLEAR     70  61  73 S14G20    29.78F
LIBERAL        CLEAR     66  61  82 S13       29.84F
GOODLAND       CLEAR     63  60  90 S13       29.76F
$$



USA.gov is the U.S. government's official web portal to all federal, state and local government web resources and services.